Simultaneous Nadir Overpasses (SNOs) Predictions

Prediction of SNOs between AQUA and METOP-C Satellite Orbit:

Table of predicted SNOs for the next 14.0 days since TLE Epoch: 6/12/2021
Index Date (AQUA) Time (AQUA) Lat,Lon (AQUA) SZA (AQUA ) Date (METOP-C) Time (METOP-C) Lat,Lon (METOP-C) SZA (METOP-C ) Distance(km) Time Diff (sec)
1 06/12/2021 23:51:05 73.22, 177.67 49.98 06/12/2021 23:49:57 73.17, 175.57 50.02 67.66 68
2 06/13/2021 00:40:41 -73.75, -15.81 129.46 06/13/2021 00:40:28 -73.76, -15.77 129.45 1.51 13
3 06/13/2021 01:30:09 73.79, 151.74 50.58 06/13/2021 01:31:06 73.80, 151.67 50.59 2.62 57
4 06/15/2021 19:25:25 73.48,-116.43 50.13 06/15/2021 19:24:14 73.40,-117.52 50.10 35.85 71
5 06/15/2021 20:14:56 -73.74, 50.64 129.59 06/15/2021 20:14:50 -73.74, 50.58 129.60 1.98 6
6 06/15/2021 21:04:25 73.84,-141.93 50.51 06/15/2021 21:05:27 73.82,-141.87 50.49 2.47 62
7 06/18/2021 14:59:43 73.64, -50.33 50.23 06/18/2021 14:58:31 73.62, -50.61 50.23 8.98 72
8 06/18/2021 15:49:11 -73.75, 117.07 129.66 06/18/2021 15:49:11 -73.76, 117.05 129.64 1.78 0
9 06/18/2021 16:38:40 73.84, -75.50 50.44 06/18/2021 16:39:48 73.84, -75.41 50.44 2.64 68
10 06/21/2021 10:33:58 73.70, 15.97 50.28 06/21/2021 10:32:50 73.69, 15.96 50.28 1.45 68
11 06/21/2021 11:23:25 -73.76,-176.51 129.67 06/21/2021 11:23:31 -73.78,-176.49 129.64 3.14 6
12 06/21/2021 12:12:55 73.90, -9.20 50.50 06/21/2021 12:14:07 73.91, -8.84 50.48 11.09 72
13 06/24/2021 06:08:13 73.72, 82.38 50.33 06/24/2021 06:07:11 73.71, 82.41 50.33 1.63 62
14 06/24/2021 06:57:40 -73.77,-110.10 129.61 06/24/2021 06:57:53 -73.75,-110.15 129.63 2.60 13



Historial Predications of SNOs between AQUA and METOP-C
